This demonstration page uses our WeatherBlox Daily Observations layout. Learn more.

Hourly Observations for January 18, 2017

Temp ( °F °C ) Dew Point ( °F °C ) Humidity (%) Winds ( mph kmh ) Pressure ( in mb ) Visibility ( mi km ) Precip ( " mm )
12:54 am 00:54 Clear 29 -1.7 27 -2.8 92 92 SSE 3 6 30.14 1021 10 16.0934 0 0
1:54 am 01:54 Clear 28 -2.2 26 -3.3 92 92 S 5 7 30.13 1020 10 16.0934 0 0
2:54 am 02:54 Clear 27 -2.8 25 -3.9 92 92 SSE 6 9 30.12 1020 10 16.0934 0 0
3:54 am 03:54 Clear 29 -1.7 27 -2.8 92 92 SSE 3 6 30.11 1020 10 16.0934 0 0
4:54 am 04:54 Clear 28 -2.2 26 -3.3 92 92 SSE 5 7 30.09 1019 10 16.0934 0 0
5:54 am 05:54 Clear 27 -2.8 25 -3.9 92 92 S 7 11 30.09 1019 10 16.0934 0 0
6:54 am 06:54 Clear 28 -2.2 25 -3.9 88 88 S 7 11 30.09 1019 10 16.0934 0 0
7:54 am 07:54 Sunny 27 -2.8 25 -3.9 92 92 SSE 7 11 30.08 1019 10 16.0934 0 0
8:54 am 08:54 Sunny 31 -0.6 29 -1.7 92 92 SSE 7 11 30.08 1019 10 16.0934 0 0
9:54 am 09:54 Sunny 36 2.2 32 0 86 86 S 6 9 30.08 1019 10 16.0934 0 0
10:54 am 10:54 Sunny 41 5 34 1.1 76 76 S 10 17 30.06 1018 10 16.0934 0 0
11:54 am 11:54 Sunny 46 7.8 37 2.8 71 71 SSW 7 11 30.04 1017 10 16.0934 0 0
12:54 pm 12:54 Sunny 50 10 39 3.9 66 66 S 14 22 29.99 1016 10 16.0934 0 0
1:54 pm 13:54 Sunny 51 10.6 39 3.9 64 64 S 15 24 29.96 1015 10 16.0934 0 0
2:54 pm 14:54 Sunny 51 10.6 40 4.4 66 66 S 16 26 29.94 1014 10 16.0934 0 0
3:54 pm 15:54 Sunny 50 10 39 3.9 66 66 S 18 30 29.93 1014 10 16.0934 0 0
4:54 pm 16:54 Sunny 48 8.9 39 3.9 71 71 S 12 19 29.92 1013 10 16.0934 0 0
5:54 pm 17:54 Clear 42 5.6 37 2.8 82 82 S 10 17 29.92 1013 10 16.0934 0 0
6:54 pm 18:54 Clear 40 4.4 36 2.2 86 86 S 6 9 29.93 1014 10 16.0934 0 0
7:54 pm 19:54 Clear 37 2.8 34 1.1 89 89 SSE 8 13 29.92 1013 10 16.0934 0 0
8:54 pm 20:54 Clear 36 2.2 33 0.6 89 89 S 8 13 29.91 1013 10 16.0934 0 0
9:54 pm 21:54 Clear 40 4.4 32 0 73 73 S 14 22 29.9 1013 10 16.0934 0 0
10:54 pm 22:54 Clear 39 3.9 32 0 76 76 S 13 20 29.89 1012 10 16.0934 0 0
11:54 pm 23:54 Clear 37 2.8 32 0 82 82 S 13 20 29.88 1012 10 16.0934 0 0

Powered by AerisWeather